CW4114 Weather Reports


time (UTC)temp
C
wind
direction
speed
KPH
gust
KPH
rain 1hr
cm
rain 24hr
cm
rain mn
cm
humidity
%
barometer
mb
20260507165929 6 35 3.2 14.5 0.00 0.00 0.00 70 1010.1
20260507165425 6 8 4.8 14.5 0.00 0.00 0.00 70 1010.2
20260507165152 6 58 1.6 11.3 0.00 0.00 0.00 70 1010.1
20260507164422 6 24 6.4 11.3 0.00 0.00 0.00 69 1010.3
20260507163415 6 5 1.6 9.7 0.00 0.00 0.00 68 1010.2
20260507162912 6 31 4.8 14.5 0.00 0.00 0.00 66 1010.2
20260507162412 6 25 3.2 14.5 0.00 0.00 0.00 65 1010.2
20260507161410 7 2 6.4 20.9 0.00 0.00 0.00 59 1010.3
20260507160909 7 337 3.2 16.1 0.00 0.00 0.00 58 1010.4
20260507160640 7 331 6.4 17.7 0.00 0.00 0.00 58 1010.4
20260507155908 7 334 8.0 17.7 0.00 0.00 0.00 59 1010.4
20260507155411 7 327 1.6 19.3 0.00 0.00 0.00 57 1010.4
20260507155131 7 286 4.8 19.3 0.00 0.00 0.00 58 1010.5
20260507154405 7 262 4.8 17.7 0.00 0.00 0.00 59 1010.4
20260507153902 7 279 6.4 16.1 0.00 0.00 0.00 57 1010.5
20260507153631 7 299 6.4 14.5 0.00 0.00 0.00 59 1010.4
20260507152902 6 314 6.4 14.5 0.00 0.00 0.00 59 1010.5
20260507152401 6 298 6.4 20.9 0.00 0.00 0.00 62 1010.6
20260507151859 6 149 1.6 20.9 0.00 0.00 0.00 64 1010.6
20260507151132 6 25 4.8 6.4 0.00 0.00 0.00 67 1010.7
20260507150400 6 7 1.6 8.0 0.00 0.00 0.00 66 1010.6
20260507145858 6 9 3.2 9.7 0.00 0.00 0.00 68 1010.6
20260507145358 6 25 4.8 9.7 0.00 0.00 0.00 68 1010.6
20260507144858 6 31 4.8 8.0 0.00 0.00 0.00 68 1010.7
20260507144358 6 56 3.2 8.0 0.00 0.00 0.00 66 1010.6
20260507143856 6 355 4.8 8.0 0.00 0.00 0.00 69 1010.6
20260507143357 6 59 0.0 11.3 0.00 0.00 0.00 68 1010.6
20260507142856 6 72 3.2 11.3 0.00 0.00 0.00 64 1010.7
20260507142356 6 344 3.2 11.3 0.00 0.00 0.00 61 1010.6
20260507141855 6 299 6.4 14.5 0.00 0.00 0.00 61 1010.6
20260507141356 6 358 4.8 16.1 0.00 0.00 0.00 62 1010.5
20260507141126 6 298 6.4 16.1 0.00 0.00 0.00 62 1010.6
20260507135855 6 293 8.0 14.5 0.00 0.00 0.00 63 1010.8
20260507135414 6 282 3.2 11.3 0.00 0.00 0.00 63 1010.7
20260507134855 6 279 6.4 11.3 0.00 0.00 0.00 63 1010.7
20260507134356 6 323 1.6 11.3 0.00 0.00 0.00 64 1010.6
20260507134124 6 282 8.0 11.3 0.00 0.00 0.00 64 1010.7
20260507133358 6 289 1.6 16.1 0.00 0.00 0.00 64 1010.7
20260507132854 6 271 6.4 16.1 0.00 0.00 0.00 64 1010.6
20260507132355 6 250 6.4 11.3 0.00 0.00 0.00 65 1010.6
20260507131854 6 272 4.8 16.1 0.00 0.00 0.00 67 1010.6
20260507131355 6 227 8.0 16.1 0.00 0.00 0.00 68 1010.7
20260507131125 6 281 4.8 16.1 0.00 0.00 0.00 70 1010.7
20260507130354 6 265 6.4 11.3 0.00 0.00 0.00 71 1010.8
20260507125853 5 254 4.8 11.3 0.00 0.00 0.00 72 1010.7
20260507125356 5 286 6.4 11.3 0.00 0.00 0.00 73 1010.7
20260507124853 5 212 4.8 11.3 0.00 0.00 0.00 73 1010.7
20260507124353 5 307 8.0 11.3 0.00 0.00 0.00 74 1010.7
20260507123853 5 296 6.4 11.3 0.00 0.00 0.00 75 1010.7
20260507123353 5 264 1.6 8.0 0.00 0.00 0.00 75 1010.7
20260507122852 5 254 6.4 8.0 0.00 0.00 0.00 77 1010.7
20260507122353 5 262 3.2 8.0 0.00 0.00 0.00 78 1010.7
20260507122121 4 281 3.2 8.0 0.00 0.00 0.00 79 1010.6
20260507121352 3 275 4.8 8.0 0.00 0.00 0.00 80 1010.6
20260507120852 3 254 4.8 8.0 0.00 0.00 0.00 82 1010.6
20260507120352 3 247 4.8 8.0 0.00 0.00 0.00 82 1010.7
20260507115852 2 221 3.2 8.0 0.00 0.00 0.00 83 1010.6
20260507115352 2 261 3.2 8.0 0.00 0.00 0.00 84 1010.6
20260507114852 1 243 3.2 8.0 0.00 0.00 0.00 84 1010.5
20260507114622 1 268 4.8 8.0 0.00 0.00 0.00 84 1010.5
20260507114118 1 244 4.8 6.4 0.00 0.00 0.00 85 1010.5
20260507113351 1 254 4.8 6.4 0.00 0.00 0.00 86 1010.4
20260507112624 0 241 3.2 6.4 0.00 0.00 0.00 87 1010.3
20260507111850 0 259 3.2 6.4 0.00 0.00 0.00 87 1010.4
20260507111351 0 247 3.2 6.4 0.00 0.00 0.00 87 1010.3
20260507110850 0 254 3.2 6.4 0.00 0.00 0.00 87 1010.3
20260507110350 0 269 3.2 8.0 0.00 0.00 0.00 87 1010.3
20260507105851 0 268 3.2 8.0 0.00 0.00 0.00 87 1010.3
20260507105351 0 230 4.8 8.0 0.00 0.00 0.00 88 1010.2
20260507104851 0 228 3.2 6.4 0.00 0.00 0.00 87 1010.2
20260507104347 0 244 3.2 6.4 0.00 0.00 0.00 87 1010.2
20260507103850 0 244 3.2 6.4 0.00 0.00 0.00 87 1010.1
20260507103346 0 245 3.2 4.8 0.00 0.00 0.00 87 1010.1
20260507102848 -1 247 3.2 4.8 0.00 0.00 0.00 87 1010.1
20260507102347 -1 252 3.2 4.8 0.00 0.00 0.00 87 1010.1
20260507102130 -1 258 3.2 4.8 0.00 0.00 0.00 87 1010.0
20260507101347 -1 255 3.2 4.8 0.00 0.00 0.00 86 1010.2
20260507100847 -1 255 1.6 4.8 0.00 0.00 0.00 86 1010.1
20260507100345 -1 245 3.2 9.7 0.00 0.00 0.00 86 1010.2
20260507095844 -1 243 3.2 9.7 0.00 0.00 0.00 86 1010.2
20260507095613 -1 241 4.8 9.7 0.00 0.00 0.00 86 1010.2
20260507095123 -1 237 4.8 8.0 0.00 0.00 0.00 86 1010.1
20260507094607 -1 237 3.2 4.8 0.00 0.00 0.00 86 1010.1
20260507094106 -1 234 3.2 4.8 0.00 0.00 0.00 85 1010.1
20260507093337 -1 247 3.2 4.8 0.00 0.00 0.00 85 1010.1
20260507092840 -1 252 3.2 4.8 0.00 0.00 0.00 85 1010.2
20260507092337 0 252 1.6 4.8 0.00 0.00 0.00 85 1010.2
20260507091837 0 245 3.2 4.8 0.00 0.00 0.00 85 1010.3
20260507091333 0 237 3.2 4.8 0.00 0.00 0.00 84 1010.3
20260507090832 0 279 1.6 4.8 0.00 0.00 0.00 85 1010.2
20260507090331 0 275 3.2 4.8 0.00 0.00 0.00 84 1010.2
20260507085832 0 274 3.2 4.8 0.00 0.00 0.00 84 1010.3
20260507085331 0 255 3.2 4.8 0.00 0.00 0.00 84 1010.3
20260507084831 0 247 3.2 8.0 0.00 0.00 0.00 84 1010.3
20260507084600 0 251 3.2 8.0 0.00 0.00 0.00 84 1010.3
20260507084102 0 241 3.2 6.4 0.00 0.00 0.00 83 1010.3
20260507083331 0 244 3.2 4.8 0.00 0.00 0.00 83 1010.4
20260507082831 0 251 3.2 6.4 0.00 0.00 0.00 83 1010.4
20260507082331 0 248 4.8 6.4 0.00 0.00 0.00 83 1010.4
20260507081831 0 245 3.2 6.4 0.00 0.00 0.00 82 1010.4
20260507081331 0 250 3.2 6.4 0.00 0.00 0.00 82 1010.4
20260507081102 0 252 4.8 6.4 0.00 0.00 0.00 82 1010.4
20260507080331 0 257 3.2 4.8 0.00 0.00 0.00 81 1010.4
20260507075830 0 251 3.2 6.4 0.00 0.00 0.00 81 1010.5
20260507075556 0 261 3.2 6.4 0.00 0.00 0.00 81 1010.5
20260507074832 0 240 3.2 6.4 0.00 0.00 0.00 81 1010.6
20260507074557 0 238 3.2 6.4 0.00 0.00 0.00 80 1010.6
20260507073831 0 247 3.2 6.4 0.00 0.00 0.00 80 1010.6
20260507073331 0 245 3.2 6.4 0.00 0.00 0.00 79 1010.6
20260507072831 0 244 3.2 4.8 0.00 0.00 0.00 79 1010.6
20260507072334 0 268 3.2 4.8 0.00 0.00 0.00 79 1010.6
20260507071829 0 268 3.2 4.8 0.00 0.00 0.00 78 1010.5
20260507071330 0 230 3.2 6.4 0.00 0.00 0.00 78 1010.5
20260507070828 0 262 3.2 6.4 0.00 0.00 0.00 78 1010.6
20260507070551 0 250 3.2 6.4 0.00 0.00 0.00 78 1010.7
20260507065828 1 257 3.2 6.4 0.00 0.00 0.00 78 1010.6
20260507065326 1 237 4.8 8.0 0.00 0.00 0.00 78 1010.7
20260507064825 1 245 4.8 8.0 0.00 0.00 0.00 77 1010.8
20260507064322 1 244 4.8 8.0 0.00 0.00 0.00 77 1010.9
20260507063320 1 247 4.8 6.4 0.00 0.00 0.00 76 1010.9
20260507063048 1 238 3.2 6.4 0.00 0.00 0.00 76 1010.9
20260507062318 1 245 4.8 6.4 0.00 0.00 0.00 76 1010.9
20260507062042 2 250 3.2 6.4 0.00 0.00 0.00 76 1010.9
20260507061312 2 240 3.2 3.2 0.00 0.00 0.00 75 1010.8
20260507060808 2 265 0.0 0.0 0.00 0.00 0.00 75 1010.8
20260507060310 2 265 0.0 1.6 0.00 0.00 0.00 75 1010.9
20260507060034 2 267 0.0 3.2 0.00 0.00 0.00 76 1011.0
20260507055306 2 271 1.6 4.8 0.00 0.00 0.00 76 1011.1
20260507054804 2 227 1.6 4.8 0.00 0.00 0.00 76 1011.0
20260507054534 2 310 0.0 3.2 0.00 0.00 0.00 77 1011.1
20260507053803 2 19 0.0 4.8 0.00 0.00 0.00 78 1011.2
20260507053302 2 32 1.6 4.8 0.00 0.00 0.00 78 1011.2
20260507053030 2 259 3.2 4.8 0.00 0.00 0.00 78 1011.2
20260507052306 2 250 3.2 6.4 0.00 0.00 0.00 78 1011.3
20260507051800 1 262 3.2 6.4 0.00 0.00 0.00 79 1011.4
20260507051300 1 258 3.2 6.4 0.00 0.00 0.00 79 1011.4
20260507050758 1 254 3.2 4.8 0.00 0.00 0.00 79 1011.4
20260507050258 1 252 1.6 4.8 0.00 0.00 0.00 78 1011.4
20260507045756 1 261 1.6 4.8 0.00 0.00 0.00 78 1011.3
20260507045255 1 267 1.6 4.8 0.00 0.00 0.00 78 1011.4
20260507044756 1 255 3.2 4.8 0.00 0.00 0.00 78 1011.4
20260507044256 1 252 3.2 4.8 0.00 0.00 0.00 78 1011.4
20260507044027 1 261 3.2 4.8 0.00 0.00 0.00 78 1011.4
20260507043251 1 254 3.2 4.8 0.00 0.00 0.00 77 1011.5
20260507043023 2 259 3.2 4.8 0.00 0.00 0.00 77 1011.4
20260507042249 2 274 3.2 4.8 0.00 0.00 0.00 76 1011.5
20260507041749 2 272 3.2 4.8 0.00 0.00 0.00 76 1011.5
20260507041247 2 258 1.6 3.2 0.00 0.00 0.00 76 1011.5
20260507040746 2 255 1.6 4.8 0.00 0.00 0.00 76 1011.5
20260507040248 2 276 3.2 4.8 0.00 0.00 0.00 75 1011.5
20260507035741 2 255 3.2 4.8 0.00 0.00 0.00 75 1011.4
20260507035241 2 272 1.6 4.8 0.00 0.00 0.00 74 1011.4
20260507035008 2 276 3.2 4.8 0.00 0.00 0.00 74 1011.3
20260507034243 3 272 3.2 4.8 0.00 0.00 0.00 74 1011.4
20260507033740 3 268 3.2 4.8 0.00 0.00 0.00 73 1011.4
20260507033240 3 248 1.6 3.2 0.00 0.00 0.00 73 1011.4
20260507032740 3 250 1.6 3.2 0.00 0.00 0.00 72 1011.4
20260507032238 3 254 0.0 3.2 0.00 0.00 0.00 72 1011.5
20260507031238 3 269 1.6 4.8 0.00 0.00 0.00 71 1011.6
20260507030735 3 274 1.6 6.4 0.00 0.00 0.00 70 1011.6
20260507030234 3 274 3.2 6.4 0.00 0.00 0.00 71 1011.6
20260507025734 3 310 3.2 4.8 0.00 0.00 0.00 71 1011.6
20260507025501 4 283 1.6 6.4 0.00 0.00 0.00 72 1011.6
20260507024735 4 286 1.6 6.4 0.00 0.00 0.00 72 1011.6
20260507024233 4 309 1.6 4.8 0.00 0.00 0.00 73 1011.5
20260507023732 4 283 0.0 3.2 0.00 0.00 0.00 73 1011.3
20260507023233 4 316 0.0 4.8 0.00 0.00 0.00 73 1011.3
20260507022732 4 300 1.6 4.8 0.00 0.00 0.00 74 1011.4
20260507022232 4 317 0.0 4.8 0.00 0.00 0.00 74 1011.3
20260507021731 4 295 0.0 4.8 0.00 0.00 0.00 74 1011.3
20260507021231 4 334 3.2 4.8 0.00 0.00 0.00 72 1011.3
20260507020734 4 331 0.0 4.8 0.00 0.00 0.00 72 1011.3
20260507020458 4 329 3.2 4.8 0.00 0.00 0.00 71 1011.3
20260507015732 4 322 1.6 4.8 0.00 0.00 0.00 71 1011.3
20260507015231 4 281 1.6 4.8 0.00 0.00 0.00 71 1011.2
20260507014731 4 261 3.2 4.8 0.00 0.00 0.00 71 1011.2
20260507014231 4 259 3.2 4.8 0.00 0.00 0.00 70 1011.2
20260507013732 5 247 1.6 6.4 0.00 0.00 0.00 70 1011.1
20260507013234 5 261 1.6 6.4 0.00 0.00 0.00 69 1011.1
20260507012732 5 272 3.2 8.0 0.00 0.00 0.00 69 1011.1
20260507012232 5 296 1.6 8.0 0.00 0.00 0.00 69 1011.1
20260507011731 5 307 1.6 8.0 0.00 0.00 0.00 69 1011.1
20260507011232 5 334 3.2 8.0 0.00 0.00 0.00 69 1010.9
20260507010731 5 334 1.6 8.0 0.00 0.00 0.00 70 1011.0
20260507010232 5 351 3.2 8.0 0.00 0.00 0.00 68 1011.0
20260507005726 5 316 3.2 8.0 0.00 0.00 0.00 68 1011.0
20260507005454 5 322 3.2 11.3 0.00 0.00 0.00 68 1010.9
20260507004724 5 0 4.8 11.3 0.00 0.00 0.00 70 1011.0
20260507004224 5 243 3.2 8.0 0.00 0.00 0.00 73 1010.9
20260507003724 5 338 4.8 11.3 0.00 0.00 0.00 72 1010.9
20260507003225 5 340 4.8 11.3 0.00 0.00 0.00 71 1010.8
20260507002947 5 320 3.2 11.3 0.00 0.00 0.00 71 1010.8
20260507002223 5 333 4.8 11.3 0.00 0.00 0.00 73 1010.8
20260507001723 5 2 3.2 11.3 0.00 0.00 0.00 74 1010.8
20260507001223 5 358 6.4 14.5 0.00 0.00 0.00 73 1010.8
20260507000723 5 334 6.4 17.7 0.00 0.00 0.00 72 1010.8
20260507000223 5 340 8.0 19.3 0.00 0.00 0.00 73 1010.7
20260506235726 5 305 6.4 19.3 0.00 0.00 0.00 74 1010.7
20260506235220 5 11 6.4 11.3 0.00 0.00 0.00 75 1010.7
20260506234720 5 312 4.8 11.3 0.00 0.00 0.00 75 1010.6
20260506234219 5 336 4.8 16.1 0.00 0.00 0.00 74 1010.7
20260506233718 5 31 4.8 16.1 0.00 0.00 0.00 74 1010.7
20260506232717 5 28 6.4 17.7 0.00 0.00 0.00 73 1010.7
20260506232458 5 327 8.0 17.7 0.00 0.00 0.00 73 1010.6
20260506231718 5 351 6.4 22.5 0.00 0.00 0.00 73 1010.6
20260506231217 5 324 9.7 22.5 0.00 0.00 0.00 73 1010.8
20260506230938 5 340 6.4 19.3 0.00 0.00 0.00 73 1010.7
20260506230215 5 348 8.0 20.9 0.00 0.00 0.00 73 1010.7
20260506225659 5 323 9.7 19.3 0.00 0.00 0.00 73 1010.7
20260506225427 5 0 6.4 17.7 0.00 0.00 0.00 73 1010.7
20260506224700 5 0 8.0 17.7 0.00 0.00 0.00 72 1010.8
20260506224203 5 323 8.0 20.9 0.00 0.00 0.00 71 1010.8
20260506223657 5 320 11.3 20.9 0.00 0.00 0.00 70 1010.7
20260506223157 5 343 12.9 20.9 0.00 0.00 0.00 69 1010.6
20260506222925 5 353 8.0 22.5 0.00 0.00 0.00 69 1010.5
20260506222156 5 329 12.9 22.5 0.00 0.00 0.00 70 1010.6
20260506221922 5 330 6.4 19.3 0.00 0.00 0.00 69 1010.6
20260506221155 5 340 9.7 22.5 0.00 0.00 0.00 69 1010.7
20260506220656 5 357 8.0 22.5 0.00 0.00 0.00 69 1010.6
20260506220428 5 324 12.9 22.5 0.00 0.00 0.00 71 1010.5
20260506215627 5 314 9.7 22.5 0.00 0.00 0.00 71 1010.4
20260506215127 5 338 9.7 19.3 0.00 0.00 0.00 71 1010.4
20260506214627 5 17 9.7 20.9 0.00 0.00 0.00 72 1010.4
20260506214125 5 323 8.0 19.3 0.00 0.00 0.00 73 1010.4
20260506213852 5 333 9.7 19.3 0.00 0.00 0.00 72 1010.4
20260506213356 5 5 9.7 19.3 0.00 0.00 0.00 71 1010.3
20260506211621 5 7 6.4 20.9 0.00 0.00 0.00 71 1010.3
20260506211120 5 355 6.4 22.5 0.00 0.00 0.00 71 1010.3
20260506210620 5 331 8.0 22.5 0.00 0.00 0.00 69 1010.3
20260506210125 5 353 8.0 19.3 0.00 0.00 0.00 70 1010.2
20260506205522 5 55 8.0 19.3 0.00 0.00 0.00 70 1010.2
20260506205021 5 337 9.7 17.7 0.00 0.00 0.00 70 1010.3
20260506204520 5 324 4.8 17.7 0.00 0.00 0.00 69 1010.3
20260506204019 5 350 8.0 17.7 0.00 0.00 0.00 72 1010.2
20260506203745 5 327 3.2 14.5 0.00 0.00 0.00 72 1010.1
20260506203022 5 343 8.0 19.3 0.00 0.00 0.00 71 1010.2
20260506202520 5 340 9.7 20.9 0.00 0.00 0.00 71 1010.3
20260506202020 5 2 6.4 20.9 0.00 0.00 0.00 71 1010.3
20260506201520 5 350 8.0 19.3 0.00 0.00 0.00 71 1010.3
20260506201022 5 7 8.0 19.3 0.00 0.00 0.00 71 1010.4
20260506200519 5 345 6.4 19.3 0.00 0.00 0.00 70 1010.3
20260506200019 5 290 9.7 20.9 0.00 0.00 0.00 70 1010.3
20260506195018 5 309 12.9 22.5 0.00 0.00 0.00 71 1010.2
20260506194521 5 327 6.4 17.7 0.00 0.00 0.00 70 1010.2
20260506194019 5 334 6.4 19.3 0.00 0.00 0.00 69 1010.3
20260506193517 5 314 8.0 24.1 0.00 0.00 0.00 68 1010.2
20260506193016 5 327 9.7 24.1 0.00 0.00 0.00 68 1010.2
20260506192512 5 341 8.0 20.9 0.00 0.00 0.00 68 1010.2
20260506192012 5 344 11.3 19.3 0.00 0.00 0.00 69 1010.2
20260506191512 5 0 8.0 20.9 0.00 0.00 0.00 69 1010.2
20260506191015 5 354 11.3 25.7 0.00 0.00 0.00 68 1010.2
20260506190007 5 21 8.0 25.7 0.00 0.00 0.00 68 1010.3
20260506185506 5 2 8.0 19.3 0.00 0.00 0.00 68 1010.2
20260506185005 5 7 8.0 20.9 0.00 0.00 0.00 68 1010.2
20260506184506 5 310 6.4 20.9 0.00 0.00 0.00 68 1010.3
20260506184004 5 4 8.0 20.9 0.00 0.00 0.00 68 1010.3
20260506183503 5 329 6.4 17.7 0.00 0.00 0.00 69 1010.2
20260506183006 5 350 9.7 17.7 0.00 0.00 0.00 68 1010.2
20260506182003 6 319 9.7 20.9 0.00 0.00 0.00 66 1010.2
20260506181502 6 331 8.0 20.9 0.00 0.00 0.00 68 1010.2
20260506181002 5 326 3.2 19.3 0.00 0.00 0.00 69 1010.3
20260506180456 5 288 9.7 14.5 0.00 0.00 0.00 70 1010.4
20260506175957 5 30 6.4 14.5 0.00 0.00 0.00 69 1010.3
20260506175722 5 7 3.2 11.3 0.00 0.00 0.00 69 1010.4
20260506174953 5 338 4.8 14.5 0.00 0.00 0.00 69 1010.5
20260506174454 5 27 4.8 16.1 0.00 0.00 0.00 69 1010.4
20260506173955 5 25 6.4 16.1 0.00 0.00 0.00 67 1010.4
20260506173454 5 51 3.2 14.5 0.00 0.00 0.00 65 1010.5
20260506172954 5 340 4.8 11.3 0.00 0.00 0.00 66 1010.6
20260506172453 5 4 4.8 9.7 0.00 0.00 0.00 66 1010.7
20260506171951 5 17 3.2 14.5 0.00 0.00 0.00 68 1010.7
20260506170950 5 358 4.8 9.7 0.00 0.00 0.00 69 1010.8
20260506170449 5 357 6.4 11.3 0.00 0.00 0.00 69 1010.7